Skip Page Navigation
NASA JPL Caltech
NASA Logo - Jet Propulsion Laboratory + View the NASA Portal
+ Near-Earth Object (NEO) Program
Search JPL
JPL Home Earth Solar System Stars & Galaxies Technology
JPL Solar System Dynamics
BODIES ORBITS EPHEMERIDES TOOLS PHYSICAL DATA DISCOVERY FAQ SITE MAP
JPL Small-Body Database Browser
Search: [ help ]  
100051 Davidhernandez (1991 TC16)
Classification: Main-belt Asteroid          SPK-ID: 2100051
Ephemeris | Orbit Diagram | Orbital Elements | Physical Parameters | Discovery Circumstances | Close-Approach Data ]

[ show orbit diagram ]
Orbital Elements at Epoch 2457000.5 (2014-Dec-09.0) TDB
Reference: JPL 6 (heliocentric ecliptic J2000)
 Element Value Uncertainty (1-sigma)   Units 
e .0391794259667185 4.5567e-08  
a 2.187693519386501 1.8797e-08 AU
q 2.101980943105827 1.007e-07 AU
i 5.834222848476387 6.3623e-06 deg
node 198.1257047374233 6.3209e-05 deg
peri 222.3286089227271 0.00012495 deg
M 33.66929445960564 0.00010931 deg
tp 2456889.962493800572
(2014-Aug-20.46249380)
0.0003585 JED
period 1181.892964212125
3.24
1.5233e-05
4.171e-08
d
yr
n .304596110562333 3.9257e-09 deg/d
Q 2.273406095667174 1.9533e-08 AU
  Orbit Determination Parameters
   # obs. used (total)      387  
   data-arc span      11714 days (32.07 yr)  
   first obs. used      1981-10-01  
   last obs. used      2013-10-27  
   planetary ephem.      DE431  
   SB-pert. ephem.      SB431-BIG16  
   condition code      0  
   fit RMS      .58432  
   data source      ORB  
   producer      Otto Matic  
   solution date      2014-Jun-10 20:01:23  

Additional Information
 Earth MOID = 1.116 AU 
 T_jup = 3.668 
[ show covariance matrix ]

Ephemeris | Orbit Diagram | Orbital Elements | Physical Parameters | Discovery Circumstances | Close-Approach Data ]

Physical Parameter Table
Parameter Symbol Value Units Sigma Reference Notes
absolute magnitude H 16.6 mag n/a MPO276128  

100051 Davidhernandez           Discovered 1991 Oct. 6 by A. Lowe on plates taken at Palomar.
David A. Hernandez (b. 1998) is a nephew of the discoverer.
NOTE: some special characters may not display properly (any characters within {} are an attempt to place the proper accent above a character)
Reference: 20060413/MPCPages.arcLast Updated: 2006-04-17

[ show close-approach data ]
Alternate Designations
 1991 TC16 = 2004 VD74 
Ephemeris | Orbit Diagram | Orbital Elements | Physical Parameters | Discovery Circumstances | Close-Approach Data ]
ABOUT SSD CREDITS/AWARDS PRIVACY/COPYRIGHT GLOSSARY LINKS
FirstGov 2014-Dec-22 12:44 UT
(server date/time)  
NASA Home Page
Site Manager:   Donald K. Yeomans
Webmaster  Alan B. Chamberlin